Regional Weather Roundup
Issued by NWS

Home | Current Version | Previous Version | Text Only | Print | Product List | Glossary Off
Versions: 1 2 3 4 5 6 7 8 9 10 11 12 13 14 15 16 17 18 19 20 21 22 23 24 25 26 27 28 29 30 31 32 33 34 35 36 37 38 39 40 41 42 43 44 45 46 47 48 49 50

000
ASUS43 KFSD 301102
RWRSD

WEATHER ROUNDUP FOR SOUTH DAKOTA
NATIONAL WEATHER SERVICE SIOUX FALLS SD
600 AM CDT SAT MAY 30 2015

NOTE: "FAIR" INDICATES FEW OR NO CLOUDS BELOW 12,000 FEET WITH NO
SIGNIFICANT WEATHER AND/OR OBSTRUCTIONS TO VISIBILITY.


SDZ001>005-009-010-012>017-301200-
NORTHWEST AND NORTH CENTRAL SOUTH DAKOTA

CITY           SKY/WX    TMP DP  RH WIND       PRES   REMARKS
BUFFALO          N/A     36  33  89 SE7       30.22S
FAITH            N/A     37  32  82 E7        30.30S
MOBRIDGE       CLEAR     41  35  79 VRB6      30.33R
$$

SDZ012>016-024>037-041>051-057-063-072>074-301200-
SOUTHWEST AND SOUTH CENTRAL SOUTH DAKOTA

CITY           SKY/WX    TMP DP  RH WIND       PRES   REMARKS
RAPID CTY ARPT CLEAR     36  34  92 S3        30.30S
PIERRE         CLEAR     36  33  89 NE7       30.32R
CUSTER         CLEAR     34  31  88 CALM      30.28S FOG
ELLSWORTH AFB  CLEAR     39  36  90 S5        30.29S
PHILIP         MOCLDY    36  35  96 W5        30.32R
PINE RIDGE     CLEAR     30  28  92 NE5       30.31S WCI  25
WINNER         FAIR      38  34  85 N5        30.32R
$$

SDZ004>011-016>023-039-040-301200-
NORTHEAST SOUTH DAKOTA

CITY           SKY/WX    TMP DP  RH WIND       PRES   REMARKS
ABERDEEN       CLEAR     38  32  79 N10       30.35R
WATERTOWN      CLEAR     36  30  79 N14       30.27R
BROOKINGS      PTCLDY    39  34  81 N14G21    30.25S
SISSETON         N/A     36  32  85 N15       30.31R
$$

SDZ017-020-022-023-036>040-048>070-301200-
SOUTHEAST SOUTH DAKOTA

CITY           SKY/WX    TMP DP  RH WIND       PRES   REMARKS
SIOUX FALLS    MOCLDY    44  38  79 N13       30.23R
HURON          PTCLDY    38  34  85 N12       30.31R
MITCHELL       CLEAR     40  37  89 N9        30.29R
YANKTON        MOCLDY    45  39  81 NW13      30.21S
$$

ABBREVIATIONS USED IN REMARKS
   TC - TEMPERATURE IN CELSIUS
  WCI - WIND CHILL INDEX
   HX - HEAT INDEX
  VSB - VISIBILITY




USA.gov is the U.S. government's official web portal to all federal, state and local government web resources and services.